Погода в Золотурне

Швейцария     47°12′33″N   7°31′52″E
темп.,
°C
ветер,
м/с
пор.,
м/с
влажн.,
%
обл.,
%
осадки,
мм/ч
давл.,
гПа
погр.,
м
6 марта, сб
сб601:00−1св4109381 0.5 1027647
04:00−2св389395 0.0 1027377
07:00−4св269158 0.0 1028252
10:00−1всв368452 0.0 1028470
13:00+4всв356647 0.0 1027727
16:00+6всв34560 0.0 1026779
19:00+1св12790 0.0 102725
22:00−1всв12820 0.0 102824
7 марта, вс
вс701:00−1в11820 0.0 102821
04:00−1ююв118143 0.0 102643
07:000ю118867 0.0 102655
10:00+4юз248186 0.3 1024238
13:00+5сз128792 2.1 1022336
16:00+6с128589 0.9 1020318
19:00+2с119588 0.9 102122
22:00+3ссз119365 0.1 102124
8 марта, пн
пн801:00+1ссв119665 0.2 102122
04:00+1с119681 0.0 102024
07:00+2ссв129790 0.0 102150
10:00+4св128798 0.1 1020389
13:00+6ссв227494 0.1 1020713
16:00+6с126886 0.1 1018931
19:00+2с118379 0.1 101922
22:000ссз11930 0.0 102022
9 марта, вт
вт901:00−1ссз119314 0.0 102021
04:00−1зсз019293 0.0 102021
07:00−2зсз119360 0.0 102121
10:00+6с11630 0.0 1021615
13:00+8ссз224911 0.0 10201397
16:00+7ссз22490 0.0 10191134
19:00+1с12730 0.0 102222
22:00−1ссз11810 0.0 102422
10 марта, ср
ср1001:00−1ссз00820 0.0 102421
04:00−2з01830 0.0 102421
07:00−2юз11830 0.0 102521
10:00+5ююз125416 0.0 1024389
13:00+10ююз234235 0.0 10221017
16:00+9юз1349100 0.0 1021922
19:00+3зюз227796 0.0 102233
22:00+2юз238176 0.0 102351